• Join FlightAware (Why Join?)
  • Login
  • US Flag 
05:52PM EST


 

Airport Tracker/Info


-or-


 

Live Flight TrackerFlight Track Log ✈ N53NW ✈ 25-Aug-2013 ✈ KBIV - KTZR

Flight Track Log - Related Links

Times and Time Zones

All times are in EDT time to prevent confusion due to time zone crossing. See the N53NW flight status page for this flight to view local times or setup timezone preferences in your user account.

Time Position Orientation Groundspeed Altitude Reporting Facility
EDT Latitude Longitude Course Direction KTS MPH feet Rate Location/Type
02:54PM 42.6839 -86.1261 171° South 282 325 3,700  Level Chicago Center
02:55PM 42.6308 -86.0572 136° Southeast 268 308 7,400 3,048 Climbing Chicago Center
02:56PM 42.5628 -85.9706 137° Southeast 279 321 10,000 2,226 Climbing Chicago Center
02:57PM 42.4981 -85.8869 136° Southeast 316 364 12,000 1,984 Climbing Chicago Center
02:58PM 42.4342 -85.8042 136° Southeast 321 369 14,100 1,984 Climbing Chicago Center
02:59PM 42.3664 -85.7167 136° Southeast 335 386 16,100 1,790 Climbing Chicago Center
03:00PM 42.2967 -85.6297 137° Southeast 341 392 17,800 1,790 Climbing Chicago Center
03:01PM 42.2250 -85.5439 138° Southeast 347 399 19,800 2,129 Climbing Chicago Center
03:02PM 42.1272 -85.4653 149° Southeast 342 394 22,200 1,548 Climbing Chicago Center
03:04PM 42.0381 -85.4117 156° South 356 410 23,000 387 Climbing Chicago Center
03:05PM 41.9444 -85.3936 172° South 374 430 23,000 339 Level Chicago Center
03:06PM 41.8192 -85.3661 171° South 378 435 23,700 968 Climbing Chicago Center
03:07PM 41.7181 -85.3369 168° South 372 428 25,000 624 Climbing Chicago Center
03:08PM 41.6144 -85.2653 153° Southeast 413 475 25,000  Level Chicago Center
03:09PM 41.5144 -85.2031 155° Southeast 396 456 25,000  Level Chicago Center
03:10PM 41.4156 -85.1386 154° Southeast 395 455 25,000  Level Chicago Center
03:11PM 41.3147 -85.0744 154° Southeast 399 459 25,000  Level Chicago Center
03:12PM 41.2150 -85.0094 154° Southeast 400 460 25,000  Level Chicago Center
03:13PM 41.1153 -84.9456 154° Southeast 399 459 25,000 -339 Level Chicago Center
03:14PM 40.9964 -84.8694 154° Southeast 397 457 24,300 -823 Descending Chicago Center
03:15PM 40.8972 -84.8053 154° Southeast 396 456 23,300 -629 Descending Chicago Center
03:16PM 40.8294 -84.6989 130° Southeast 395 455 23,000 -145 Descending Chicago Center
03:17PM 40.7897 -84.5681 112° Southeast 389 448 23,000 -339 Level Chicago Center
03:18PM 40.7494 -84.4361 112° Southeast 389 448 22,300 -1,056 Descending Chicago Center
03:19PM 40.7086 -84.3081 113° Southeast 384 442 20,800 -1,645 Descending Chicago Center
03:20PM 40.6628 -84.1628 113° Southeast 364 419 18,900 -1,522 Descending Chicago Center
03:21PM 40.6178 -84.0206 113° Southeast 354 407 17,400 -1,333 Descending Indianapolis Center
03:22PM 40.5808 -83.9039 113° Southeast 347 399 15,900 -1,452 Descending Indianapolis Center
03:23PM 40.5439 -83.7878 113° Southeast 344 396 14,400 -1,403 Descending Indianapolis Center
03:24PM 40.5075 -83.6736 113° Southeast 339 390 13,000 -1,403 Descending Indianapolis Center
03:25PM 40.4731 -83.5672 113° Southeast 324 373 11,500 -960 Descending Indianapolis Center
03:26PM 40.4403 -83.4650 113° Southeast 308 354 11,000 -1,152 Descending Indianapolis Center
03:27PM 40.4022 -83.3461 113° Southeast 297 342 9,100 -1,839 Descending Indianapolis Center